FW6908 Weather Reports


Display with metric or nautical units.
time (UTC)temp
F
wind
direction
speed
MPH
gust
MPH
rain 1hr
in
rain 24hr
in
rain mn
in
humidity
%
barometer
mb
20260506222509 60 78 2.0 4.0 0.00 0.00 0.00 62 1018.3
20260506222009 60 70 2.0 6.0 0.00 0.00 0.00 62 1018.3
20260506221508 59 53 4.0 6.0 0.00 0.00 0.00 63 1018.4
20260506221008 59 38 3.0 5.0 0.00 0.00 0.00 64 1018.4
20260506220507 59 46 3.0 5.0 0.00 0.00 0.00 65 1018.4
20260506220007 59 32 3.0 5.0 0.00 0.00 0.00 65 1018.3
20260506215507 59 53 3.0 5.0 0.00 0.00 0.00 65 1018.3
20260506215006 59 38 3.0 7.0 0.00 0.00 0.00 65 1018.4
20260506214505 59 46 4.0 5.0 0.00 0.00 0.00 65 1018.3
20260506214005 59 43 3.0 5.0 0.00 0.00 0.00 65 1018.3
20260506213507 59 35 3.0 6.0 0.00 0.00 0.00 66 1018.3
20260506213003 59 30 3.0 5.0 0.00 0.00 0.00 65 1018.4
20260506212502 60 17 3.0 4.0 0.00 0.00 0.00 64 1018.5
20260506212101 61 28 1.0 3.0 0.00 0.00 0.00 63 1018.5
20260506211559 61 59 0.0 0.0 0.00 0.00 0.00 62 1018.5
20260506211104 62 56 0.0 2.0 0.00 0.00 0.00 62 1018.5
20260506210559 62 54 0.0 2.0 0.00 0.00 0.00 62 1018.5
20260506210057 61 48 0.0 2.0 0.00 0.00 0.00 62 1018.5
20260506205557 62 51 0.0 2.0 0.00 0.00 0.00 61 1018.6
20260506205057 63 53 0.0 2.0 0.00 0.00 0.00 59 1018.6
20260506204557 63 46 0.0 0.0 0.00 0.00 0.00 59 1018.6
20260506204056 62 34 0.0 0.0 0.00 0.00 0.00 59 1018.7
20260506203556 62 33 0.0 0.0 0.00 0.00 0.00 60 1018.7
20260506203056 62 34 0.0 0.0 0.00 0.00 0.00 60 1018.7
20260506202555 62 32 0.0 0.0 0.00 0.00 0.00 60 1018.7
20260506202056 63 30 0.0 0.0 0.00 0.00 0.00 59 1018.7
20260506201555 64 26 0.0 0.0 0.00 0.00 0.00 57 1018.7
20260506201054 65 26 0.0 1.0 0.00 0.00 0.00 55 1018.6
20260506200554 65 26 0.0 1.0 0.00 0.00 0.00 53 1018.5
20260506200054 65 24 0.0 3.0 0.00 0.00 0.00 53 1018.5
20260506195553 65 24 1.0 3.0 0.00 0.00 0.00 51 1018.5
20260506195053 65 28 1.0 3.0 0.00 0.00 0.00 53 1018.5
20260506194552 65 28 0.0 3.0 0.00 0.00 0.00 53 1018.4
20260506194050 65 20 1.0 4.0 0.00 0.00 0.00 52 1018.4
20260506193551 65 22 1.0 4.0 0.00 0.00 0.00 53 1018.3
20260506193055 65 24 1.0 3.0 0.00 0.00 0.00 52 1018.3
20260506192549 66 28 1.0 3.0 0.00 0.00 0.00 52 1018.2
20260506192049 67 20 0.0 2.0 0.00 0.00 0.00 50 1018.1
20260506191553 67 19 0.0 2.0 0.00 0.00 0.00 49 1018.1
20260506191053 68 12 0.0 2.0 0.00 0.00 0.00 47 1018.1
20260506190548 68 17 0.0 3.0 0.00 0.00 0.00 46 1017.9
20260506190050 68 18 1.0 3.0 0.00 0.00 0.00 46 1018.0
20260506185548 68 25 1.0 4.0 0.00 0.00 0.00 46 1017.9
20260506185048 68 360 1.0 4.0 0.00 0.00 0.00 45 1018.0
20260506184548 68 350 2.0 4.0 0.00 0.00 0.00 45 1017.9
20260506184048 68 350 1.0 3.0 0.00 0.00 0.00 45 1017.8
20260506183548 68 322 0.0 3.0 0.00 0.00 0.00 45 1017.8
20260506183051 69 337 0.0 3.0 0.00 0.00 0.00 45 1017.7
20260506182548 68 342 2.0 3.0 0.00 0.00 0.00 45 1017.6
20260506182048 68 335 1.0 4.0 0.00 0.00 0.00 46 1017.5
20260506181600 69 336 1.0 4.0 0.00 0.00 0.00 46 1017.5
20260506181046 69 334 1.0 4.0 0.00 0.00 0.00 46 1017.5
20260506180550 69 323 2.0 4.0 0.00 0.00 0.00 46 1017.5
20260506180048 69 336 2.0 4.0 0.00 0.00 0.00 46 1017.5
20260506175546 69 346 2.0 5.0 0.00 0.00 0.00 46 1017.5
20260506175046 69 346 2.0 5.0 0.00 0.00 0.00 46 1017.5
20260506174644 69 323 3.0 7.0 0.00 0.00 0.00 46 1017.5
20260506174044 69 317 2.0 5.0 0.00 0.00 0.00 46 1017.4
20260506173544 69 280 2.0 5.0 0.00 0.00 0.00 46 1017.3
20260506173111 69 280 3.0 8.0 0.00 0.00 0.00 46 1017.3
20260506172543 70 262 4.0 8.0 0.00 0.00 0.00 46 1017.3
20260506172043 70 288 2.0 6.0 0.00 0.00 0.00 46 1017.4
20260506171545 70 273 4.0 6.0 0.00 0.00 0.00 45 1017.4
20260506171043 70 298 3.0 9.0 0.00 0.00 0.00 45 1017.3
20260506170543 70 271 6.0 9.0 0.00 0.00 0.00 44 1017.3
20260506165543 71 282 4.0 8.0 0.00 0.00 0.00 44 1017.3
20260506165043 71 259 4.0 9.0 0.00 0.00 0.00 44 1017.2
20260506164542 71 274 5.0 9.0 0.00 0.00 0.00 43 1017.2
20260506164043 71 246 3.0 10.0 0.00 0.00 0.00 43 1017.3
20260506163543 71 273 7.0 10.0 0.00 0.00 0.00 42 1017.3
20260506163052 71 251 6.0 11.0 0.00 0.00 0.00 42 1017.3
20260506162543 71 257 7.0 11.0 0.00 0.00 0.00 42 1017.2
20260506162045 72 261 7.0 13.0 0.00 0.00 0.00 41 1017.2
20260506161542 72 285 9.0 13.0 0.00 0.00 0.00 41 1017.1
20260506161140 72 281 7.0 11.0 0.00 0.00 0.00 40 1017.1
20260506160540 72 305 8.0 12.0 0.00 0.00 0.00 40 1017.2
20260506160042 72 288 7.0 12.0 0.00 0.00 0.00 40 1017.2
20260506155539 72 259 5.0 11.0 0.00 0.00 0.00 40 1017.1
20260506155036 72 267 8.0 11.0 0.00 0.00 0.00 40 1017.1
20260506154538 72 253 7.0 12.0 0.00 0.00 0.00 40 1017.1
20260506154034 73 288 8.0 13.0 0.00 0.00 0.00 39 1017.3
20260506153531 73 279 7.0 13.0 0.00 0.00 0.00 39 1017.4
20260506153030 73 256 7.0 14.0 0.00 0.00 0.00 39 1017.3
20260506152529 73 281 10.0 14.0 0.00 0.00 0.00 39 1017.4
20260506152029 72 260 10.0 15.0 0.00 0.00 0.00 40 1017.4
20260506151528 72 271 11.0 16.0 0.00 0.00 0.00 39 1017.4
20260506151029 73 267 11.0 15.0 0.00 0.00 0.00 39 1017.3
20260506150527 73 293 8.0 15.0 0.00 0.00 0.00 41 1017.3
20260506150026 73 259 9.0 16.0 0.00 0.00 0.00 40 1017.3
20260506145530 73 303 12.0 16.0 0.00 0.00 0.00 40 1017.3
20260506145026 73 264 7.0 17.0 0.00 0.00 0.00 40 1017.3
20260506144524 73 252 10.0 17.0 0.00 0.00 0.00 41 1017.3
20260506144026 73 265 9.0 14.0 0.00 0.00 0.00 41 1017.3
20260506143523 73 279 11.0 14.0 0.00 0.00 0.00 41 1017.3
20260506143026 73 286 11.0 15.0 0.00 0.00 0.00 42 1017.3
20260506142521 74 222 9.0 15.0 0.00 0.00 0.00 41 1017.3
20260506142021 73 236 8.0 15.0 0.00 0.00 0.00 42 1017.3
20260506141521 73 249 10.0 16.0 0.00 0.00 0.00 42 1017.3
20260506141020 73 271 11.0 16.0 0.00 0.00 0.00 43 1017.3
20260506140520 74 240 9.0 15.0 0.00 0.00 0.00 42 1017.4
20260506140021 73 222 9.0 15.0 0.00 0.00 0.00 43 1017.3
20260506135518 73 240 10.0 15.0 0.00 0.00 0.00 43 1017.3
20260506135017 73 239 10.0 19.0 0.00 0.00 0.00 44 1017.3
20260506134517 73 247 10.0 19.0 0.00 0.00 0.00 44 1017.3
20260506134015 74 250 8.0 15.0 0.00 0.00 0.00 43 1017.3
20260506133518 74 245 10.0 16.0 0.00 0.00 0.00 44 1017.3
20260506133015 74 301 10.0 17.0 0.00 0.00 0.00 44 1017.2
20260506132513 74 263 11.0 17.0 0.00 0.00 0.00 44 1017.3
20260506132017 75 251 8.0 14.0 0.00 0.00 0.00 41 1017.2
20260506131514 74 253 10.0 14.0 0.00 0.00 0.00 39 1017.2
20260506131015 74 228 9.0 17.0 0.00 0.00 0.00 38 1017.2
20260506130513 74 259 12.0 17.0 0.00 0.00 0.00 39 1017.3
20260506130012 75 256 8.0 12.0 0.00 0.00 0.00 40 1017.3
20260506125509 75 267 7.0 12.0 0.00 0.00 0.00 41 1017.2
20260506125009 74 271 8.0 14.0 0.00 0.00 0.00 40 1017.4
20260506124508 74 213 9.0 14.0 0.00 0.00 0.00 39 1017.5
20260506124007 75 268 11.0 15.0 0.00 0.00 0.00 41 1017.5
20260506123508 74 239 9.0 16.0 0.00 0.00 0.00 42 1017.5
20260506123007 74 254 11.0 16.0 0.00 0.00 0.00 42 1017.6
20260506122506 74 270 9.0 15.0 0.00 0.00 0.00 42 1017.5
20260506122006 75 242 9.0 15.0 0.00 0.00 0.00 41 1017.4
20260506121506 74 256 7.0 15.0 0.00 0.00 0.00 41 1017.5
20260506121004 74 233 11.0 15.0 0.00 0.00 0.00 40 1017.5
20260506120506 74 262 10.0 16.0 0.00 0.00 0.00 39 1017.6
20260506120003 74 267 11.0 17.0 0.00 0.00 0.00 40 1017.6
20260506115504 74 249 12.0 17.0 0.00 0.00 0.00 40 1017.6
20260506115002 74 245 8.0 16.0 0.00 0.00 0.00 42 1017.6
20260506114501 74 238 12.0 16.0 0.00 0.00 0.00 41 1017.6
20260506114100 75 259 10.0 15.0 0.00 0.00 0.00 42 1017.6
20260506114001 75 295 10.0 15.0 0.00 0.00 0.00 41 1017.6
20260506113601 75 225 9.0 15.0 0.00 0.00 0.00 41 1017.7
20260506113100 75 215 8.0 16.0 0.00 0.00 0.00 42 1017.6
20260506112602 76 229 8.0 14.0 0.00 0.00 0.00 41 1017.6
20260506112102 75 244 10.0 13.0 0.00 0.00 0.00 40 1017.6
20260506111559 75 206 6.0 13.0 0.00 0.00 0.00 41 1017.6
20260506111059 76 240 7.0 15.0 0.00 0.00 0.00 41 1017.6
20260506110559 76 236 11.0 15.0 0.00 0.00 0.00 41 1017.7
20260506110059 76 226 8.0 14.0 0.00 0.00 0.00 41 1017.5
20260506105558 76 247 10.0 14.0 0.00 0.00 0.00 41 1017.6
20260506105058 77 219 6.0 14.0 0.00 0.00 0.00 39 1017.5
20260506104628 76 250 5.0 14.0 0.00 0.00 0.00 40 1017.5
20260506104056 76 259 3.0 14.0 0.00 0.00 0.00 41 1017.6
20260506103555 76 246 8.0 14.0 0.00 0.00 0.00 41 1017.5
20260506103055 76 226 6.0 12.0 0.00 0.00 0.00 41 1017.6
20260506102554 76 195 7.0 12.0 0.00 0.00 0.00 41 1017.6
20260506102054 76 172 8.0 11.0 0.00 0.00 0.00 43 1017.6
20260506101553 76 230 9.0 12.0 0.00 0.00 0.00 44 1017.6
20260506101052 75 204 5.0 10.0 0.00 0.00 0.00 44 1017.6
20260506100552 75 198 6.0 12.0 0.00 0.00 0.00 43 1017.7
20260506100051 75 265 7.0 11.0 0.00 0.00 0.00 43 1017.7
20260506095554 76 202 3.0 11.0 0.00 0.00 0.00 43 1017.7
20260506095050 75 260 5.0 11.0 0.00 0.00 0.00 43 1017.8
20260506094548 75 240 6.0 9.0 0.00 0.00 0.00 44 1017.8
20260506094147 75 238 6.0 9.0 0.00 0.00 0.00 43 1017.8
20260506093547 75 254 6.0 10.0 0.00 0.00 0.00 44 1017.9
20260506093046 75 183 7.0 10.0 0.00 0.00 0.00 43 1018.0
20260506092545 75 202 6.0 10.0 0.00 0.00 0.00 43 1017.9
20260506092045 74 205 4.0 10.0 0.00 0.00 0.00 41 1018.0
20260506091544 75 230 7.0 10.0 0.00 0.00 0.00 41 1018.1
20260506091044 74 249 3.0 8.0 0.00 0.00 0.00 42 1018.0
20260506090540 74 191 3.0 8.0 0.00 0.00 0.00 41 1018.1
20260506090045 74 245 4.0 8.0 0.00 0.00 0.00 42 1018.0
20260506085538 74 181 3.0 7.0 0.00 0.00 0.00 43 1018.0
20260506085038 73 16 2.0 9.0 0.00 0.00 0.00 44 1017.9
20260506084537 74 229 5.0 9.0 0.00 0.00 0.00 43 1017.8
20260506084036 73 199 5.0 8.0 0.00 0.00 0.00 44 1017.9
20260506083534 73 207 5.0 9.0 0.00 0.00 0.00 44 1017.9
20260506083040 73 271 2.0 10.0 0.00 0.00 0.00 45 1018.0
20260506082533 73 219 6.0 10.0 0.00 0.00 0.00 45 1018.0
20260506082032 73 237 5.0 10.0 0.00 0.00 0.00 45 1018.0
20260506081531 73 226 6.0 10.0 0.00 0.00 0.00 45 1018.1
20260506081032 72 219 2.0 9.0 0.00 0.00 0.00 46 1018.1
20260506080529 72 274 3.0 7.0 0.00 0.00 0.00 47 1018.1
20260506073529 70 259 3.0 6.0 0.00 0.00 0.00 48 1017.7
20260506073023 70 279 2.0 6.0 0.00 0.00 0.00 47 1017.7
20260506072525 70 250 2.0 6.0 0.00 0.00 0.00 47 1017.7
20260506072022 70 194 3.0 6.0 0.00 0.00 0.00 47 1017.6
20260506071525 70 205 2.0 5.0 0.00 0.00 0.00 48 1017.5
20260506071020 69 161 2.0 5.0 0.00 0.00 0.00 49 1017.6
20260506070520 69 225 3.0 5.0 0.00 0.00 0.00 48 1017.6
20260506062512 67 161 0.0 2.0 0.00 0.00 0.00 53 1017.6
20260506062011 66 141 0.0 3.0 0.00 0.00 0.00 54 1017.6
20260506061510 67 140 0.0 3.0 0.00 0.00 0.00 53 1017.6
20260506061011 67 117 0.0 3.0 0.00 0.00 0.00 54 1017.6
20260506060512 66 117 0.0 3.0 0.00 0.00 0.00 55 1017.6
20260506051052 60 340 1.0 5.0 0.00 0.00 0.00 67 1017.5
20260506050551 59 44 1.0 6.0 0.00 0.00 0.00 68 1017.4
20260506045047 58 10 2.0 4.0 0.00 0.00 0.00 71 1017.2
20260506044554 57 360 2.0 4.0 0.00 0.00 0.00 72 1017.2
20260506044044 57 360 0.0 2.0 0.00 0.00 0.00 72 1017.3
20260506043542 57 59 0.0 3.0 0.00 0.00 0.00 72 1017.3
20260506043049 56 58 1.0 3.0 0.00 0.00 0.00 73 1017.3
20260506042540 56 57 1.0 5.0 0.00 0.00 0.00 73 1017.2
20260506042037 55 68 3.0 5.0 0.00 0.00 0.00 74 1017.2
20260506041539 55 96 1.0 5.0 0.00 0.00 0.00 74 1017.2
20260506041035 54 41 3.0 5.0 0.00 0.00 0.00 75 1017.1
20260506040534 54 22 3.0 5.0 0.00 0.00 0.00 75 1017.2
20260506040044 54 39 2.0 6.0 0.00 0.00 0.00 76 1017.1
20260506035534 54 37 3.0 5.0 0.00 0.00 0.00 75 1017.0
20260506035033 55 44 1.0 4.0 0.00 0.00 0.00 75 1016.9
20260506034531 54 49 2.0 4.0 0.00 0.00 0.00 75 1016.9
20260506034031 54 44 2.0 4.0 0.00 0.00 0.00 76 1016.8
20260506033530 54 53 2.0 4.0 0.00 0.00 0.00 76 1016.8
20260506033030 54 40 2.0 4.0 0.00 0.00 0.00 75 1016.7
20260506032529 54 19 2.0 4.0 0.00 0.00 0.00 75 1016.8
20260506032029 54 55 1.0 5.0 0.00 0.00 0.00 75 1016.8
20260506031529 54 65 2.0 5.0 0.00 0.00 0.00 76 1016.7
20260506031029 54 44 3.0 6.0 0.00 0.00 0.00 76 1016.7
20260506030527 54 33 3.0 6.0 0.00 0.00 0.00 76 1016.7
20260506030027 54 49 3.0 6.0 0.00 0.00 0.00 75 1016.7
20260506025526 54 32 2.0 4.0 0.00 0.00 0.00 75 1016.6
20260506025027 54 69 1.0 4.0 0.00 0.00 0.00 75 1016.6
20260506024534 54 55 2.0 5.0 0.00 0.00 0.00 76 1016.6
20260506024026 54 65 3.0 5.0 0.00 0.00 0.00 76 1016.7
20260506023529 53 33 3.0 5.0 0.00 0.00 0.00 77 1016.7
20260506023024 53 50 3.0 5.0 0.00 0.00 0.00 76 1016.7
20260506022524 53 15 3.0 5.0 0.00 0.00 0.00 76 1016.7
20260506022024 53 360 1.0 5.0 0.00 0.00 0.00 76 1016.8
20260506021541 53 53 2.0 5.0 0.00 0.00 0.00 76 1016.7
20260506021023 53 55 3.0 5.0 0.00 0.00 0.00 75 1016.8
20260506020526 53 34 3.0 6.0 0.00 0.00 0.00 76 1016.8
20260506020021 53 17 3.0 6.0 0.00 0.00 0.00 75 1016.9
20260506015521 53 47 4.0 8.0 0.00 0.00 0.00 75 1016.9
20260506015020 54 32 3.0 8.0 0.00 0.00 0.00 75 1016.9
20260506014524 54 39 3.0 5.0 0.00 0.00 0.00 75 1016.9
20260506014018 54 23 3.0 5.0 0.00 0.00 0.00 74 1016.9
20260506013518 54 48 3.0 8.0 0.00 0.00 0.00 74 1017.0
20260506013017 54 46 4.0 8.0 0.00 0.00 0.00 74 1017.0
20260506012516 54 46 4.0 7.0 0.00 0.00 0.00 75 1017.0
20260506012015 53 26 3.0 7.0 0.00 0.00 0.00 75 1016.9
20260506011522 54 29 4.0 6.0 0.00 0.00 0.00 74 1016.9
20260506011014 54 36 4.0 6.0 0.00 0.00 0.00 74 1016.9
20260506010516 54 60 2.0 6.0 0.00 0.00 0.00 74 1016.9
20260506010015 54 61 3.0 6.0 0.00 0.00 0.00 74 1016.9
20260506005512 54 44 3.0 6.0 0.00 0.00 0.00 74 1017.0
20260506005015 54 61 3.0 6.0 0.00 0.00 0.00 74 1017.0
20260506004509 54 36 4.0 6.0 0.00 0.00 0.00 72 1017.1
20260506004009 54 80 3.0 5.0 0.00 0.00 0.00 74 1017.0
20260506003508 54 34 3.0 4.0 0.00 0.00 0.00 72 1017.0
20260506003007 55 26 1.0 4.0 0.00 0.00 0.00 72 1017.0
20260506002508 56 58 0.0 4.0 0.00 0.00 0.00 71 1017.0
20260506002006 56 53 1.0 4.0 0.00 0.00 0.00 70 1017.1
20260506001506 56 74 2.0 5.0 0.00 0.00 0.00 70 1017.1
20260506001006 56 69 3.0 4.0 0.00 0.00 0.00 71 1017.1
20260506000506 56 59 3.0 4.0 0.00 0.00 0.00 71 1017.1
20260506000005 56 29 2.0 4.0 0.00 0.00 0.00 70 1017.1
20260505235504 56 61 3.0 5.0 0.00 0.00 0.00 72 1017.1
20260505235006 56 61 2.0 6.0 0.00 0.00 0.00 72 1017.2
20260505234510 55 40 5.0 6.0 0.00 0.00 0.00 73 1017.2
20260505234003 55 30 2.0 6.0 0.00 0.00 0.00 74 1017.2
20260505233501 55 30 3.0 6.0 0.00 0.00 0.00 73 1017.3
20260505233100 55 16 0.0 4.0 0.00 0.00 0.00 74 1017.2
20260505232559 56 95 0.0 3.0 0.00 0.00 0.00 72 1017.3
20260505232059 57 103 0.0 2.0 0.00 0.00 0.00 74 1017.3
20260505231559 57 102 0.0 3.0 0.00 0.00 0.00 70 1017.3
20260505231058 58 101 1.0 3.0 0.00 0.00 0.00 72 1017.4
20260505230559 58 59 1.0 2.0 0.00 0.00 0.00 72 1017.5
20260505230057 57 58 1.0 4.0 0.00 0.00 0.00 72 1017.5
20260505225559 57 57 1.0 4.0 0.00 0.00 0.00 73 1017.4
20260505225058 56 38 1.0 4.0 0.00 0.00 0.00 73 1017.6
20260505224557 56 38 1.0 4.0 0.00 0.00 0.00 74 1017.7
20260505224055 56 38 2.0 4.0 0.00 0.00 0.00 74 1017.6
20260505223555 56 36 2.0 4.0 0.00 0.00 0.00 73 1017.6
20260505223107 56 40 2.0 3.0 0.00 0.00 0.00 72 1017.6